TimeEDT,TemperatureF,Dew PointF,Humidity,Sea Level PressureIn,VisibilityMPH,Wind Direction,Wind SpeedMPH,Gust SpeedMPH,PrecipitationIn,Events,Conditions,WindDirDegrees,DateUTC
12:56 AM,27.0,18.0,69,30.12,10.0,NW,5.8,-,N/A,,Clear,310,2014-03-16 04:56:00
1:56 AM,26.1,18.0,71,30.14,10.0,NNW,6.9,-,N/A,,Scattered Clouds,340,2014-03-16 05:56:00
2:56 AM,25.0,16.0,69,30.13,10.0,NNW,9.2,-,N/A,,Clear,330,2014-03-16 06:56:00
3:56 AM,24.1,14.0,65,30.14,10.0,NNW,9.2,18.4,N/A,,Clear,330,2014-03-16 07:56:00
4:56 AM,23.0,12.0,63,30.16,10.0,NNW,9.2,-,N/A,,Partly Cloudy,330,2014-03-16 08:56:00
5:56 AM,21.9,12.9,68,30.18,10.0,North,10.4,-,N/A,,Clear,360,2014-03-16 09:56:00
6:56 AM,19.9,10.9,68,30.19,10.0,North,10.4,-,N/A,,Clear,10,2014-03-16 10:56:00
7:56 AM,19.9,10.9,68,30.21,10.0,NNE,9.2,-,N/A,,Overcast,20,2014-03-16 11:56:00
8:56 AM,19.9,8.1,60,30.23,10.0,North,9.2,-,N/A,,Overcast,10,2014-03-16 12:56:00
9:56 AM,19.9,7.0,57,30.26,10.0,NNE,8.1,-,N/A,,Overcast,20,2014-03-16 13:56:00
10:56 AM,19.9,5.0,52,30.25,10.0,North,11.5,-,N/A,,Overcast,360,2014-03-16 14:56:00
11:56 AM,21.0,6.1,53,30.25,10.0,North,11.5,-,N/A,,Overcast,10,2014-03-16 15:56:00
12:56 PM,21.9,6.1,51,30.25,10.0,NNE,12.7,-,N/A,,Overcast,30,2014-03-16 16:56:00
1:56 PM,21.9,5.0,48,30.25,10.0,NNE,9.2,-,N/A,,Overcast,20,2014-03-16 17:56:00
2:56 PM,24.1,6.1,46,30.22,10.0,North,10.4,-,N/A,,Overcast,10,2014-03-16 18:56:00
3:56 PM,26.1,6.1,43,30.20,10.0,NE,5.8,-,N/A,,Mostly Cloudy,50,2014-03-16 19:56:00
4:56 PM,26.1,7.0,44,30.18,10.0,NNE,8.1,-,N/A,,Partly Cloudy,30,2014-03-16 20:56:00
5:56 PM,26.1,5.0,41,30.18,10.0,NE,5.8,-,N/A,,Overcast,50,2014-03-16 21:56:00
6:56 PM,25.0,6.1,45,30.16,10.0,NE,9.2,-,N/A,,Overcast,40,2014-03-16 22:56:00
7:56 PM,24.1,5.0,44,30.14,10.0,NE,10.4,-,N/A,,Overcast,40,2014-03-16 23:56:00
8:56 PM,24.1,5.0,44,30.14,10.0,NE,12.7,-,N/A,,Overcast,40,2014-03-17 00:56:00
9:56 PM,23.0,5.0,46,30.12,10.0,NE,10.4,-,N/A,,Clear,40,2014-03-17 01:56:00
10:56 PM,21.9,5.0,48,30.12,10.0,NE,9.2,-,N/A,,Clear,50,2014-03-17 02:56:00
11:56 PM,21.9,5.0,48,30.09,10.0,NE,9.2,-,N/A,,Clear,50,2014-03-17 03:56:00